Printer-friendly version

IAU Minor Planet Center

Minor Planet Center

MPEC 2006-Q29 : 2005 UL5

The following Minor Planet Electronic Circular may be linked-to from your own Web pages, but must not otherwise be redistributed electronically.


Read MPEC 2006-Q28 Read MPEC 2006-Q30


M.P.E.C. 2006-Q29                                Issued 2006 Aug. 25, 01:46 UT

     The Minor Planet Electronic Circulars contain information on unusual
         minor planets and routine data on comets.  They are published
   on behalf of Commission 20 of the International Astronomical Union by the
          Minor Planet Center, Smithsonian Astrophysical Observatory,
                          Cambridge, MA 02138, U.S.A.

                  Supported in part by the Brinson Foundation
                  Supported in part by the TABASGO Foundation
             Prepared using the Tamkin Foundation Computer Network

                              MPC@CFA.HARVARD.EDU
          URL http://cfa-www.harvard.edu/iau/mpc.html  ISSN 1523-6714

                                   2005 UL5

                           Revision to MPEC 2005-U79

Additional Observations:
     K05U05L 2C2006 08 11.56394104 17 07.507+11 21 06.53         23.3 R EQ029568
     K05U05L 2C2006 08 11.57134804 17 08.507+11 21 09.41         23.5 R EQ029568
     K05U05L 2C2006 08 16.56161204 28 38.664+11 53 42.25         22.8 R EQ029568
     K05U05L 2C2006 08 16.56894604 28 39.673+11 53 45.15         22.6 R EQ029568
     K05U05L 2C2006 08 16.57783204 28 40.907+11 53 48.65         23.2 R EQ029568

Observer details:
568 Mauna Kea.  Observer F. Bernardi.  2.24-m University of Hawaii reflector
    + 2048 CCD.

First and last observations above in comparison with prediction:
Residuals in seconds of arc, reference and Delta-T
060811 568  8.3-  6.0-    060816 568  9.6-  6.3-    MPO 97872   +0.0051 day

Orbital elements:
2005 UL5                                            PHA, Earth MOID = 0.0062 AU
Epoch 2006 Sept. 22.0 TT = JDT 2454000.5                MPC
M 263.15183              (2000.0)            P               Q
n   1.08615795     Peri.  127.58446     -0.97239984     +0.09830206
a   0.9372902      Node    58.98943     -0.19445756     -0.84262557
e   0.5696591      Incl.   14.29349     +0.12893724     -0.52945147
P   0.91           H   20.2           G   0.15           U   4
Residuals in seconds of arc
051027 704  0.1-  1.1+    051031 704  0.5+  0.7+    051108 A78  0.0   0.2-
051027 704  1.0+  1.2+    051031 704  0.5+  0.0     051108 A78  0.1-  0.6-
051027 704  0.3-  1.1+    051031 704  0.1-  0.2+    051108 A78  0.1-  0.1-
051027 704  0.5+  0.7+    051031 704  0.5+  0.3-    051108 A78  0.5-  0.1+
051027 703  0.1+  0.4+    051101 704  0.1+  0.1-    051109 A78  0.9-  0.3-
051027 703  0.8+  0.6-    051101 704  0.2+  0.1+    051109 A78  0.9-  0.2-
051027 703  0.3+  0.1-    051101 704  0.3+  0.4-    051109 A78  0.5-  0.2+
051027 703  0.1-  1.1-    051101 704  0.0   0.4-    051109 A78  0.8-  0.0
051027 703  0.1-  0.5-    051101 704  0.1-  0.2-    051110 291  0.7-  0.0
051027 703  0.5-  0.3-    051101 703  0.3-  0.3+    051110 291  0.8-  0.7-
051027 703  0.3+  0.2-    051101 703  0.1+  0.2-    051110 291  0.2-  0.4-
051027 703  0.0   0.2-    051101 703  0.5+  0.1+    051110 A48  0.0   0.2-
051027 143  0.2+  0.3-    051101 703  0.0   0.4+    051110 A48  0.1+  0.5-
051027 143  0.3+  0.2-    051102 704  0.1+  0.3-    051110 A48  0.2+  0.1+
051028 854 (2.1-  1.1-)   051102 704  0.3+  0.5-    051110 A48  0.2+  0.4-
051028 854  0.8-  0.1-    051102 704  0.8+  0.4-    051116 J95  0.1+  0.1-
051028 854  0.4-  0.1-    051102 704  0.4+  0.1+    051116 J95  0.6+  0.1-
051028 854  1.1-  0.7+    051102 704  0.6+  0.4-    051116 J95  0.1+  0.3+
051028 H36  1.0+  0.2+    051102 754  1.2+  0.1+    051119 151  0.2-  0.2+
051028 H36  0.3+  0.4-    051102 754  0.3-  0.5+    051119 151  0.2-  0.1+
051028 734  0.4+  0.1-    051102 754  0.9+  0.5-    051119 151  0.1+  0.2-
051028 734  0.0   0.2-    051102 754  0.5+  0.4-    051119 151  0.2-  0.1+
051028 734  0.3+  0.1-    051102 754  0.8+  0.2-    051119 151  0.2-  0.4+
051028 734  0.4+  0.1+    051103 844  1.3-  0.1+    051119 151  0.0   0.7+
051028 704  0.4+  0.4-    051103 844 (2.6-  0.9-)   051120 703  0.0   0.3+
051028 704  0.5-  0.2-    051103 844  1.7-  0.8-    051120 703  0.5-  0.1+
051028 704  0.2+  0.9+    051105 G88  0.4+  0.3+    051120 703  1.0+  0.1-
051028 704  0.1-  0.1-    051105 G88  0.2+  0.2-    051120 703  0.2-  0.4+
051029 704  0.1+  0.5+    051105 G88  0.0   0.1+    051120 703  0.4-  0.2+
051029 704  0.1-  0.5+    051105 G88  0.3+  0.1+    051120 703  0.7-  0.1+
051029 704  0.4+  0.5+    051106 G88  0.0   0.2-    051120 703  0.1-  0.3+
051029 704  0.2+  0.0     051106 G88  0.1-  0.2-    051120 703  0.2-  0.4+
051030 704  0.0   0.3+    051106 G88  0.2+  0.1+    060811 568  0.1+  0.1+
051030 704  0.1+  0.3+    051106 703  0.4+  0.5-    060811 568  0.1+  0.1-
051030 704  0.1-  0.0     051106 703  0.1-  0.2+    060816 568  0.0   0.0
051030 704  0.7-  0.6+    051106 703  0.5+  0.5+    060816 568  0.1-  0.1+
051030 704  0.3+  0.3+    051106 703  0.1-  0.8+    060816 568  0.1-  0.1+
051031 704  0.7+  0.9-    051108 A78  0.7+  0.1+

Ephemeris:
2005 UL5                 a,e,i = 0.94, 0.57, 14                  q = 0.4034
Date    TT    R. A. (2000) Decl.     Delta      r     Elong.  Phase     V
2006 08 23    04 44.03   +12 34.1    1.168    1.386    78.6    45.7    23.0
2006 09 02    05 09.60   +13 33.6    1.043    1.344    81.8    48.0    22.7
2006 09 12    05 38.18   +14 30.4    0.918    1.294    84.4    50.7    22.5
2006 09 22    06 11.54   +15 24.0    0.793    1.235    86.0    54.2    22.1
2006 10 02    06 52.49   +16 10.8    0.675    1.167    85.9    58.8    21.8
2006 10 12    07 45.62   +16 36.4    0.569    1.088    83.1    65.6    21.5
2006 10 22    08 56.48   +15 59.5    0.487    0.999    76.3    75.4    21.3
2006 11 01    10 25.95   +13 08.6    0.447    0.900    65.0    88.3    21.3

Gareth V. Williams           (C) Copyright 2006 MPC           M.P.E.C. 2006-Q29

Read MPEC 2006-Q28 Read MPEC 2006-Q30


Our Web policy. Index to the CBAT/MPC/ICQ pages.


Valid HTML 4.01!